DECAYED

FENGYUN 1C DEB, 31626 (Decayed)

Orbit data source: Space-Track

FENGYUN 1C DEB, 31626 was space debris in SSO originally from a launch on Mon, 10 May 1999 UTC launched from the Taiyaun Space Center, China (TSC). Fengyun 1C debris stems from the Chinese weather satellite Fengyun-1C, which was intentionally destroyed by a Chinese anti-satellite missile in 2007. This event dramatically increased the amount of space debris, with thousands of trackable fragments posing hazards to satellites and human spaceflight. The Fengyun 1C debris cloud has become a focal point in discussions about space sustainability and the need for international regulations to prevent the creation of new debris.

Not visible in the next 10 days
Identifier
31626, 1999-025CAG
Orbit
Decayed
Country
Flag of CNCN / PRC
Related business
Manufacturer
Unknown
Mission
Decayed spacecraft
Bus & Motor
Unknown
Mass
Unknown
Launch date (UTC)
1999-05-10 (27 years ago)
Launch vehicle
Unknown
Launch site
Taiyaun Space Center, China (TSC)
Object type
Payload
Rocket body
Debris
Shape & HBR
Unknown shape, 0.1 m
Radar Cross Section
Small (<0.1 m²)

Expand to show TLE details & history
Last TLE update: 1 year ago

TLE from 1 year ago
0 FENGYUN 1C DEB
1 31626U 99025CAG 25098.29742976  .06877263  11380+0  29609-1 0  9991
2 31626 101.2266 302.9367 0014018 305.7772  54.2185 15.92893554605202
Epoch: 2025-04-08T07:08Z
TLE epoch observation values (Epoch: 2025-04-08T07:08:17.931Z)
Latitude
0.00003°
Longitude
-0.93854°
Altitude
291.776 km
Speed
7.736 km/s
True Right ascension
20h 11m 44s
True Declination
0° 00' 00"
Sunlit
Object was in daylight at epoch
Visualization orbit readout
Latitude
Unknown
Longitude
Unknown
Altitude
Unknown
Speed
Unknown
Apparent Right ascension
Unknown
Apparent Declination
Unknown
Sunlit
N/A
Visualization observer readout
Local Sidereal Time
10:02:40
Azimuth
Unknown
Elevation
Unknown
Doppler factor
Unknown
Orbital elements
Apogee altitude
300.619 km
Perigee altitude
281.921 km
Semi-major axis
6,669.407 km
Eccentricity
0.0014
Inclination
101.2266°
RAAN
302.9367°
Arg. of periapsis
305.7772°
True anomaly
54.34895°
Mean anomaly
54.2185°
Eccentric anomaly
54.28371°
Mean motion
3.98485 °/min
Orbital period
90.34 mins
BSTAR
0.029609
Loading maneuver chart data...
Computing Atmospheric mass density...
Loading historical data...
Loading historical data...
Loading historical data...
Loading historical data...
Loading historical data...
Loading historical data...
Loading historical data...

Documentation

Showing up to 5 results
|